Weather in Alakayevka

Russia / Samara Oblast     53°25′07″N   50°44′46″E
temp.,
°C
wind,
m/s
gust,
m/s
humid.,
%
clouds,
%
prec.,
mm/h
press.,
hPa
HPBL,
m
1 march, mon
mon101:00−18nw359888 0.0 101588
04:00−20nw349972 0.1 101777
07:00−22nw349967 0.0 101966
10:00−20nw479748 0.0 1021214
13:00−17nw359360 0.0 1021267
16:00−15nw369367 0.0 1022368
19:00−18wnw339882 0.0 102226
22:00−20wsw239742 0.0 102120
2 march, tue
tue201:00−18ssw369830 0.0 101981
04:00−14ssw5109665 0.0 1017241
07:00−12sw71295100 0.1 1013330
10:00−9sw71394100 1.0 1010446
13:00−4sw71295100 1.4 1006630
16:00−1sw81296100 2.1 1003644
19:00−1sw71397100 1.4 1001653
22:000wnw5997100 2.4 1001607
3 march, wed
wed301:00−4wnw489788 0.1 1001195
04:00−8wnw479659 0.1 100295
07:00−10wnw349739 0.0 100263
10:00−7wnw479658 0.0 1004219
13:00−5wnw469599 0.1 1004354
16:00−3wnw579299 0.1 1004566
19:00−6nw5109098 0.1 1005363
22:00−10wnw5119687 0.1 1007218
4 march, thu
thu401:00−11wnw479794 0.0 1008132
04:00−13w479688 0.1 1008114
07:00−13wsw449417 0.0 100966
10:00−10sw589548 0.1 1009258
13:00−6sw6109499 0.0 1007489
16:00−3sw8129299 0.3 1006944
19:00−3sw91694100 0.3 1003776
22:00−1sw91693100 0.8 10021000
5 march, fri
fri501:00−1sw101692100 0.6 999934
04:00−1sw101787100 0.7 998939
07:00−1wsw91789100 0.1 1000868
10:00−3wnw6128399 0.4 1004673
13:00−4wnw598361 0.0 1008540
16:00−5wnw378745 0.0 1010337
19:00−10nw238615 0.0 101221
22:00−12nw128727 0.0 101421